Regional Weather Roundup
Issued by NWS Newport/Morehead, NC

Current Version | Previous Version | Graphics & Text | Print | Product List | Glossary Off
Versions: 1 2 3 4 5 6 7 8 9 10 11 12 13 14 15 16 17 18 19 20 21 22 23 24 25 26 27 28 29 30 31 32 33 34 35 36 37 38 39 40 41 42 43 44 45 46 47 48 49 50
548 ASUS42 KMHX 171214 RWRMHX WEATHER ROUNDUP FOR EASTERN NORTH CAROLINA NATIONAL WEATHER SERVICE NEWPORT/MOREHEAD CITY NC 800 AM EDT THU AUG 17 2017 NOTE: "FAIR" INDICATES FEW OR NO CLOUDS BELOW 12,000 FEET WITH NO SIGNIFICANT WEATHER AND/OR OBSTRUCTIONS TO VISIBILITY NCZ015>017-031-032-045>047-102-103-171300- NORTH COAST CITY SKY/WX TMP DP RH WIND PRES REMARKS EDENTON SUNNY 76 74 93 CALM 30.06R ELIZABETH CITY N/A 76 76 100 CALM 30.05R KITTY HAWK SUNNY 74 74 100 CALM 30.04S MANTEO SUNNY 74 73 99 CALM 30.05S $$ NCZ045>047-081-094-103-104-171300- CENTRAL COAST CITY SKY/WX TMP DP RH WIND PRES REMARKS FRISCO SUNNY 80 76 87 CALM 30.05R $$ NCZ095-097-098-100-101-171300- SOUTHERN COAST CITY SKY/WX TMP DP RH WIND PRES REMARKS BEAUFORT SUNNY 81 78 91 E3 30.05R CEDAR ISLAND NOT AVBL JACKSONVILLE MOSUNNY 80 80 100 CALM 30.04R PINEY ISLAND SUNNY N/A N/A N/A CALM 30.04R WILMINGTON SUNNY 80 77 90 CALM 30.03R $$ NCZ011>013-027>030-043-044-078>080-089-090>093-098-171300- COASTAL PLAIN CITY SKY/WX TMP DP RH WIND PRES REMARKS AHOSKIE FOG 72 72 99 CALM 30.05R VSB 1/4 CLINTON PTSUNNY 77 77 100 CALM 30.05R ELIZABETHTOWN NOT AVBL GOLDSBORO MOSUNNY 76 76 100 E3 30.03R FOG GREENVILLE SUNNY 79 79 100 CALM 30.06R HAVELOCK MOSUNNY 77 75 93 SE5 30.06R KENANSVILLE SUNNY 75 75 100 CALM 30.05R FOG KINSTON MOSUNNY 77 77 100 CALM 30.05R FOG NEW BERN SUNNY 79 78 97 SE3 30.06R RICHLANDS SUNNY 78 76 93 CALM 30.05R ROCKY MOUNT FOG 75 75 100 CALM 30.05R VSB 1/4 WASHINGTON SUNNY 76 75 96 CALM 30.05R WHITEVILLE FOG 77 76 97 CALM 30.03R VSB 1/4 $$ AMZ130-135-150-152-154-156-158-170-250-252-270-ANZ085-086-088-633-658-670-171300- MARINE OBSERVATIONS STATION/POSITION TIME TEMP WIND PRES WAVE SWELL AIR SEA DIR/SP/G HT/PER HT/PER (UTC) (F) (DEG/KT/KT) (MB) (FT/S) (FT/S) CHESAPEAKE LIGHT NOT AVBL 64 E VA BEACH 1150 76 76 350/ 2/ 4 1018.1 3/ 8 3/ 8 DUCK 1136 78 78 100/ 4/ 5 1017.1 2 E DUCK 1130 78 N/A 2/ 8 OREGON INLET 1136 78 82 20/ 3/ 3 1017.4 13E OREGON INLT 1148 79 N/A 2/ 7 2/ 7 HATTERAS CG 1136 80 83 30/ 3/ 5 1017.2 DIAMOND BUOY 1150 79 82 20/ 6/ 6 1017.3 2/ 8 2/ 8 CAPE LOOKOUT 1200 81 80/ 5/ 5 1017.2 BEAUFORT LAB 1136 80 81 70/ 3/ 4 1016.9 30 SE NEW RVR IN 1108 80 83 90/ 6/ 8 1017.1 30 SE NEW RVR IN 1113 83 N/A 2/ 7 27 SE WRIGHTSVLE 1108 83 83 140/ 6/ 8 1016.8 5 SE WRIGHTSVLE 1108 83 83 160/ 8/ 12 1016.5 225 S CAPE HAT 1150 78 84 CALM / 2 1018.1 3/ 5 3/ 5 41 SE CHARLESTON 1200 84 83 220/ 6/ 6 1016.3 $$

USA.gov is the U.S. government's official web portal to all federal, state and local government web resources and services.